Lapse_Rate
-1.1 -2.7 -3.2 -1.1 2.7 4.3 5.2 5.5 6.9 6.7 6.0 5.8 5.9 6.0 6.1 6.0 6.0 5.9 5.9 6.0 6.1 6.3 6.4 6.6 6.7 6.4 6.4 6.2 6.0 5.8 5.6 5.2 4.9 5.0 5.0 5.4 5.6 5.7 6.0 6.3 6.4 5.9 6.0
0.3 -2.4 -3.3 -1.1 1.8 3.0 3.7 3.9 4.1 5.1 6.5 6.2 6.1 6.2 6.0 5.9 5.9 5.9 5.8 5.9 6.1 6.2 6.4 6.5 7.0 6.4 6.4 6.4 6.0 5.8 5.8 5.4 5.1 5.0 5.2 5.3 5.5 5.9 6.1 5.8 5.5 5.8 5.8
0.1 -2.3 -3.9 -0.5 0.9 1.7 2.8 3.3 3.5 3.8 4.7 6.0 6.4 6.3 6.2 6.3 6.1 6.1 5.9 5.8 6.0 6.2 6.3 6.4 6.9 6.7 6.3 6.1 6.0 5.8 5.9 5.6 5.4 5.2 5.6 6.1 5.7 5.8 5.8 5.5 5.6 5.3 5.3
0.7 -1.9 -3.8 -1.5 -0.1 1.1 2.1 2.3 3.1 3.1 3.4 3.9 5.0 6.4 6.3 6.3 6.3 6.2 6.3 6.2 6.2 6.2 6.0 6.4 6.3 6.7 6.5 6.1 6.1 5.9 5.8 5.9 5.7 5.6 6.1 7.3 7.2 6.2 5.8 5.8 5.6 5.3 5.0
1.0 -1.2 -2.7 -2.2 -1.4 -0.5 0.8 1.3 2.3 2.6 2.8 3.2 3.8 5.0 6.3 6.6 6.5 6.5 6.2 6.0 5.8 5.8 5.9 6.1 6.4 6.4 6.7 6.2 5.8 5.9 5.9 5.8 5.5 5.3 5.9 7.3 7.8 6.5 5.8 5.8 5.9 5.4 5.0
1.7 -0.2 -1.7 -1.6 -1.7 -1.4 -1.0 0.1 1.1 1.8 2.3 2.5 3.0 3.7 4.7 6.1 6.6 6.6 5.9 5.8 5.8 5.8 5.8 6.0 6.2 6.5 6.4 6.3 6.1 5.8 5.6 5.6 5.5 5.5 6.4 7.3 8.1 6.5 6.1 5.9 6.0 5.6 5.7
2.0 0.4 -0.8 -0.7 -1.3 -1.6 -1.2 -0.7 0.1 0.6 1.3 1.6 2.0 2.2 2.5 3.5 5.8 6.3 6.4 6.1 5.8 5.7 5.7 5.9 6.1 6.1 6.4 6.3 6.2 6.0 5.6 5.3 5.3 5.7 6.6 8.2 7.3 7.2 6.4 6.1 6.2 5.6 6.0
1.1 0.1 -0.9 -1.1 -1.1 -1.7 -1.3 -1.4 -1.2 -0.7 0.4 0.6 0.7 0.9 1.3 2.4 4.4 6.0 6.5 6.1 5.9 5.3 5.2 5.6 5.9 6.1 6.0 5.9 6.0 5.9 5.6 5.3 5.6 6.0 6.9 7.9 8.0 7.8 6.8 6.2 6.2 5.8 5.8
0.5 -1.1 -1.9 -2.1 -1.9 -1.9 -1.9 -1.7 -1.7 -1.4 -1.1 -0.8 -0.6 -0.2 -0.0 0.9 1.7 3.9 6.5 6.6 5.8 5.2 4.9 5.0 5.3 5.7 5.8 5.7 5.6 5.6 5.4 5.2 4.5 5.4 6.8 8.6 8.2 7.7 7.0 6.5 6.1 5.8 6.0
0.2 -1.2 -2.4 -2.7 -2.5 -2.7 -2.5 -1.9 -2.0 -1.9 -1.7 -1.5 -1.7 -1.5 -1.2 -0.9 -0.1 1.6 4.4 6.5 5.9 5.2 4.8 4.9 5.1 5.4 5.5 5.5 5.4 5.3 5.3 5.0 4.4 5.6 6.9 7.5 7.9 7.6 7.1 6.8 6.0 6.1 6.5
0.1 -0.9 -1.9 -2.5 -2.7 -3.0 -2.4 -2.1 -2.1 -2.9 -2.6 -2.9 -2.6 -3.1 -2.8 -2.1 -1.3 -0.2 1.8 4.7 5.9 5.8 5.1 4.7 5.0 5.4 5.4 5.5 5.5 5.1 5.3 5.1 5.8 6.3 7.1 7.9 7.5 7.2 6.9 6.9 6.5 6.3 6.7
-0.6 -0.8 -1.3 -1.8 -2.2 -2.6 -2.3 -2.5 -2.1 -2.0 -2.6 -2.5 -3.6 -3.3 -3.7 -3.3 -2.2 -1.2 -0.3 2.4 5.0 6.0 5.6 5.6 5.3 5.4 5.7 5.9 5.8 5.2 5.1 6.0 6.8 8.1 7.5 6.9 6.3 6.4 6.5 6.5 6.7 6.6 6.6
1.3 -0.4 -0.8 -1.2 -1.5 -2.2 -2.4 -2.2 -2.1 -1.7 -1.7 -1.6 -1.8 -3.3 -3.7 -4.1 -3.4 -2.9 -2.3 -0.6 2.3 6.3 5.8 6.7 5.9 5.6 6.4 7.2 6.9 6.7 6.7 7.3 6.7 7.0 6.8 5.7 4.5 4.8 5.7 6.1 6.2 6.6 6.7
1.0 0.6 0.1 -0.5 -1.1 -1.5 -1.5 -1.6 -1.3 -1.2 -1.0 -1.1 -0.9 -1.9 -2.4 -3.7 -4.5 -4.4 -3.1 -2.5 -0.3 3.3 5.5 5.7 5.4 5.7 6.7 8.1 7.3 6.9 7.3 6.5 6.6 6.3 6.6 5.6 4.2 3.6 4.3 5.6 6.1 6.6 6.8
1.6 1.2 0.6 0.3 -0.6 -0.9 -0.8 -1.0 -0.6 -0.6 -0.6 -0.0 -0.0 -0.0 -2.0 -2.7 -3.5 -4.0 -3.6 -3.1 -2.4 -0.1 3.5 5.4 4.9 5.1 5.1 5.7 7.4 7.2 7.1 7.3 7.2 7.1 5.6 4.6 4.7 4.1 3.9 4.8 6.1 6.4 6.5
2.5 1.4 1.3 0.8 -0.2 -0.8 -0.6 -0.4 -0.3 0.0 0.0 0.6 0.7 1.2 0.7 -1.5 -2.6 -2.7 -3.6 -3.4 -2.7 -2.0 -1.7 1.1 5.7 4.8 5.2 4.7 5.4 6.7 7.1 7.1 5.5 6.5 6.0 4.8 4.3 4.4 4.2 4.4 6.1 6.2 6.6
2.1 1.7 0.7 0.7 -0.4 -1.0 -0.5 -0.5 -0.3 0.0 0.4 0.3 1.0 1.3 0.9 -0.1 -1.0 -2.5 -2.9 -3.3 -3.0 -3.2 -2.0 -0.7 5.1 5.4 5.6 5.3 5.0 4.3 4.7 4.3 4.4 5.1 3.8 3.3 4.6 4.5 4.6 4.9 5.6 5.3 5.4
1.3 0.3 0.1 -0.5 -1.6 -2.1 -1.5 -1.1 -0.3 -0.1 0.4 -0.0 1.1 1.0 0.1 0.6 0.5 -1.4 -2.1 -2.6 -2.4 -2.8 -2.3 -0.6 1.8 5.2 4.7 5.1 4.7 2.8 1.5 2.3 2.8 2.3 2.4 2.0 2.6 4.1 4.4 5.0 5.2 4.6 4.9
2.1 1.4 0.9 0.2 -1.2 -1.6 -1.5 -1.9 -1.5 -0.9 -0.3 0.4 1.0 1.0 0.1 0.5 0.5 -0.1 -1.3 -2.0 -2.3 -2.1 -1.9 -1.0 -0.6 3.2 5.3 4.1 3.2 1.5 0.5 1.0 1.6 1.9 1.6 1.4 1.3 2.3 4.1 4.7 5.1 4.7 4.9
2.5 1.5 1.0 0.5 -0.7 -1.2 -1.5 -2.1 -1.7 -1.4 -1.8 0.6 1.0 0.8 0.4 0.7 0.4 0.6 -0.1 -1.1 -1.6 -1.2 -1.2 -2.0 -1.2 -0.4 3.8 3.2 1.7 1.2 0.9 0.5 0.9 0.4 1.0 0.1 0.5 1.5 3.9 4.7 4.2 4.1 4.0
1.3 0.2 -0.3 -1.1 -1.9 -1.9 -2.9 -3.5 -3.4 -3.1 -1.9 0.0 1.4 0.8 1.0 0.7 0.3 1.3 0.9 -0.5 -1.1 -0.9 -1.3 -0.7 -1.1 -0.3 2.7 1.9 1.5 1.5 1.5 1.3 1.3 0.5 -0.4 -1.0 -0.5 0.8 1.6 4.5 4.2 4.1 4.5
0.2 -0.7 -0.5 -0.6 -0.9 -1.2 -1.8 -1.3 -0.8 -1.5 -0.5 0.7 0.6 0.3 0.7 0.3 0.9 2.3 2.0 0.9 -0.3 -1.0 -1.1 -1.0 -0.4 0.0 0.1 2.8 3.4 3.4 4.0 2.6 1.4 1.2 0.1 -0.8 -1.3 -0.2 1.0 3.6 4.5 4.6 4.7
-0.4 -1.2 -0.5 -0.4 -0.7 -0.3 -0.7 -0.7 -1.2 -0.9 -0.7 -0.7 -1.3 -0.6 0.3 0.7 1.5 1.9 2.3 2.6 0.9 0.0 -0.8 -1.2 -0.3 1.1 0.8 -0.2 4.0 4.8 4.2 4.8 1.7 0.2 -0.3 -1.2 -1.3 -1.4 0.4 1.1 4.3 4.7 4.7
-0.0 0.0 -0.1 0.2 0.5 1.1 0.3 -1.7 -2.0 -1.1 -1.1 -0.7 -0.4 -0.2 0.4 1.2 1.5 1.7 2.4 2.5 1.9 0.6 0.3 -0.1 0.6 0.4 0.6 1.0 4.0 3.5 3.2 2.9 2.5 2.6 0.5 -0.7 -1.2 -1.3 -1.0 0.4 2.9 4.7 4.8
1.5 -0.7 -1.1 -0.9 -0.9 0.8 0.4 -0.9 -2.4 -1.9 -1.0 -1.0 -0.3 -0.2 0.1 0.8 0.8 1.1 2.1 1.9 0.9 1.0 0.5 0.8 -0.2 0.1 0.8 1.6 1.1 4.2 3.4 2.6 3.4 2.4 1.8 0.4 0.2 -1.1 -1.3 -0.3 0.7 4.3 4.2
1.2 -0.0 -0.3 -0.4 -0.8 -0.2 -0.5 -1.9 -3.1 -3.0 -2.1 -1.2 -0.6 -0.5 0.6 0.2 0.5 1.0 1.4 1.2 0.9 0.8 0.8 0.6 0.8 0.3 -0.2 1.1 0.9 1.3 5.5 4.3 3.1 3.3 1.6 -0.1 -0.1 -0.4 -1.0 -1.3 0.4 2.8 3.9
Wind_Speed
16 36 40 42 42 39 36 31 24 17 15 13 12 12 12 12 11 8 8 9 9 9 9 6 5 5 5 4 5 5 6 8 8 9 9 9 10 10 7 6 8 12 14
23 30 36 39 39 37 34 34 32 29 22 18 14 12 11 11 11 10 9 9 9 10 10 9 5 5 5 5 3 3 3 5 5 6 7 8 8 8 5 4 11 10 12
22 27 31 37 38 36 36 34 33 32 30 22 18 16 13 12 12 11 10 9 9 10 10 9 6 5 5 5 5 2 1 2 3 3 1 6 9 5 5 10 12 9 10
21 23 27 35 36 35 35 36 34 33 32 29 26 18 16 13 10 11 11 11 11 10 11 9 8 7 5 5 3 4 2 1 4 5 7 9 10 10 6 8 9 10 11
19 23 27 35 36 34 35 36 34 34 33 31 28 26 20 15 14 11 11 10 11 12 11 10 9 8 6 5 4 4 4 3 4 8 10 12 5 10 9 7 8 10 11
18 22 27 33 35 35 36 37 35 34 33 32 31 29 26 20 18 14 13 12 12 11 11 11 10 8 6 5 4 3 3 4 7 9 11 12 2 10 10 10 9 10 9
20 23 25 32 35 36 35 38 36 36 34 33 32 31 30 27 20 17 13 11 9 10 11 10 9 7 6 7 6 5 3 4 8 13 12 8 3 7 9 10 10 10 10
22 25 27 30 34 34 34 37 36 36 35 34 34 34 33 30 25 19 14 11 8 9 10 10 9 6 6 6 7 6 6 6 8 13 15 3 4 4 9 11 11 11 10
23 25 28 29 32 33 32 35 34 35 35 34 35 37 35 32 31 30 17 11 7 8 9 10 9 7 5 6 7 7 6 8 9 11 13 12 4 7 10 12 12 12 14
22 25 28 30 30 30 27 32 33 34 35 34 35 38 35 32 33 32 28 15 5 6 7 8 8 8 7 6 7 7 7 8 10 12 12 4 1 4 9 12 14 16 13
14 23 28 29 30 32 29 30 29 31 33 32 33 34 30 28 27 30 30 22 14 8 7 8 8 8 8 8 8 6 6 8 11 13 11 3 3 5 7 11 14 14 15
18 17 25 27 28 29 26 27 26 25 27 27 29 28 27 26 25 28 28 31 24 13 10 11 10 11 10 9 9 9 7 11 12 4 5 2 3 4 6 8 12 16 17
14 13 23 25 27 27 25 25 23 23 23 23 24 29 25 24 25 24 24 25 26 17 13 10 8 9 12 11 3 6 8 7 4 4 2 5 7 8 6 7 8 13 19
15 15 21 25 25 26 23 22 22 21 23 22 23 25 25 22 23 23 20 24 22 23 13 13 12 13 12 9 2 5 7 4 5 5 1 5 9 10 9 9 9 10 18
13 14 16 22 24 25 22 22 21 21 22 22 23 22 23 21 20 22 22 22 22 25 22 7 10 9 8 9 5 5 6 7 4 3 4 4 8 10 11 12 11 10 15
12 13 17 19 24 25 21 22 21 21 22 21 21 22 20 22 21 20 21 20 21 23 25 25 7 6 4 7 5 6 6 4 6 7 4 2 8 13 13 14 12 11 15
8 11 12 18 22 22 20 21 20 21 22 21 20 23 23 25 21 21 20 18 21 25 26 24 14 10 4 5 4 4 4 5 6 9 8 7 10 15 13 12 8 6 12
10 12 14 20 21 22 20 19 19 21 20 21 20 22 25 25 24 22 19 18 24 24 21 17 13 6 4 4 2 2 2 4 4 5 10 11 11 12 9 10 9 6 11
8 10 11 17 18 21 20 20 19 20 19 20 21 19 26 23 25 23 19 20 25 20 17 13 12 13 4 2 3 0 1 1 2 4 4 8 11 12 10 13 14 16 17
7 8 9 12 16 17 16 17 15 15 18 19 20 22 25 22 26 23 19 21 22 16 11 12 14 13 7 3 3 1 1 2 2 2 3 6 7 12 13 15 14 14 28
7 9 11 12 15 15 9 10 9 10 10 15 17 24 23 24 26 23 18 20 20 11 13 13 12 13 10 3 3 1 1 3 3 3 3 4 4 8 12 13 13 12 20
7 7 9 10 11 13 13 12 7 10 8 16 18 21 22 25 25 21 22 17 18 10 14 12 12 9 10 5 3 2 2 2 3 3 2 3 3 7 7 11 16 17 19
7 7 8 10 10 12 14 13 11 10 9 7 11 14 20 25 23 24 22 20 17 15 11 12 11 11 10 12 10 3 2 4 1 2 3 1 3 3 3 7 17 18 19
4 4 5 6 6 9 13 5 6 6 8 8 9 16 21 22 21 23 22 20 20 17 11 12 11 11 9 11 11 6 2 4 4 2 2 2 2 2 3 3 7 22 22
2 3 4 4 3 8 9 5 3 5 6 8 8 13 15 18 22 22 21 21 20 17 16 12 14 13 9 10 9 10 5 2 1 3 3 3 2 1 2 4 5 12 23
1 3 3 4 4 6 7 6 4 5 8 9 10 10 9 12 18 19 21 22 21 20 16 15 14 16 13 12 10 13 10 5 3 3 2 2 2 1 2 4 3 4 20
Wind_Direction
336 337 343 347 357 5 16 14 2 2 9 17 16 17 22 30 31 30 25 20 10 13 0 7 25 43 27 19 36 40 35 32 53 65 70 87 102 106 115 129 95 107 114
329 338 343 348 359 5 14 18 19 13 359 359 3 8 13 18 24 28 25 15 7 1 360 5 28 26 14 26 58 40 39 41 44 71 97 101 105 116 110 353 129 108 118
344 346 342 354 1 6 13 17 19 18 14 5 352 352 358 8 9 8 12 13 5 359 357 13 16 20 21 14 14 47 25 42 21 29 216 157 129 117 74 108 113 127 128
350 349 349 360 4 6 13 16 17 16 13 12 6 350 344 346 359 357 357 359 355 356 359 4 4 4 5 28 12 10 22 313 273 278 277 262 151 146 115 116 121 144 139
357 357 356 3 6 8 14 16 16 16 13 10 8 2 348 339 337 343 346 353 354 356 354 355 356 347 352 8 25 11 4 345 292 263 271 289 149 162 146 140 142 152 147
10 5 3 5 7 10 12 14 14 15 14 11 9 5 358 347 341 339 338 344 349 354 351 345 344 345 335 335 340 332 347 326 304 283 268 282 104 160 166 163 167 185 154
11 9 5 7 9 12 12 12 13 12 12 11 10 6 360 354 340 336 333 331 339 354 356 351 341 334 327 321 320 318 316 298 293 296 315 210 135 154 187 176 175 182 173
13 9 6 6 9 11 12 11 11 11 10 9 9 7 1 356 349 333 331 333 338 0 358 349 337 325 311 306 308 312 324 286 283 283 286 271 166 198 203 189 186 184 182
15 12 9 7 7 8 9 10 10 10 9 8 7 5 1 357 355 351 318 317 343 5 360 355 350 332 315 294 295 299 307 294 280 287 308 287 159 216 221 201 192 191 195
17 14 9 7 6 5 5 7 8 9 8 7 8 4 360 358 354 350 343 325 334 349 345 345 346 329 311 296 286 289 286 280 272 276 285 344 73 213 230 213 202 202 198
18 15 10 7 6 3 2 3 5 6 8 8 5 3 1 355 350 345 341 332 312 318 319 315 314 313 306 284 267 257 269 259 252 247 267 275 257 228 232 224 210 208 198
14 11 10 7 6 3 2 2 2 3 5 6 1 4 359 352 351 348 345 342 325 310 297 283 279 286 284 265 256 238 239 253 266 256 351 44 332 280 237 231 228 216 200
13 11 9 7 6 4 360 2 1 1 3 360 2 3 357 355 355 355 347 343 333 318 301 320 292 264 267 245 268 273 270 276 307 304 39 19 0 339 273 245 243 231 210
15 12 7 7 7 4 1 2 358 359 1 358 3 2 4 356 356 349 344 339 333 331 318 327 323 321 315 318 244 301 303 270 281 295 310 2 2 322 296 273 246 242 215
18 11 8 7 10 3 2 359 358 358 358 354 359 359 8 2 352 344 341 337 331 331 325 296 295 296 309 326 307 280 299 318 289 246 109 1 323 299 292 264 245 237 213
16 13 6 9 10 2 2 0 357 356 353 359 353 2 1 4 354 350 339 335 331 333 326 320 274 276 283 286 290 267 242 296 359 337 337 302 294 299 289 265 236 230 226
17 10 9 7 9 4 1 0 355 355 352 355 350 356 10 360 354 350 338 336 330 327 325 321 280 256 251 253 282 61 39 36 4 333 341 336 291 285 284 255 187 217 235
14 11 10 9 7 2 3 0 355 353 355 347 353 347 6 353 353 348 338 335 331 328 326 322 319 259 244 241 194 107 31 4 336 344 340 334 311 288 271 209 136 77 247
20 11 10 8 7 357 359 356 354 352 354 345 350 350 354 349 351 344 340 333 334 328 326 325 320 317 230 167 151 130 331 300 304 311 309 313 309 306 270 188 143 97 55
29 16 13 11 7 359 360 351 352 353 349 349 343 1 347 348 346 339 337 337 336 330 328 332 323 319 289 166 128 135 279 276 280 280 282 288 302 302 293 164 149 129 111
21 15 13 7 6 5 3 354 353 351 338 349 351 350 346 345 339 336 339 336 338 335 326 326 323 318 302 155 117 141 229 232 251 245 274 278 284 288 299 176 167 172 147
19 12 11 10 3 6 4 351 345 334 338 330 348 338 341 340 336 338 335 332 335 330 327 329 329 323 315 226 158 156 213 237 237 228 236 262 284 292 272 251 170 175 169
16 3 11 4 0 4 358 345 343 332 337 340 341 335 336 333 332 336 330 328 330 331 319 320 326 313 317 311 263 172 162 221 168 190 223 242 261 275 284 293 192 183 179
6 2 13 359 348 352 358 350 347 344 337 329 326 323 328 327 332 327 326 330 327 322 313 314 316 313 301 297 297 248 202 135 191 222 243 240 241 284 297 282 257 185 178
47 13 1 335 334 347 349 341 322 335 319 319 321 322 321 326 325 324 324 325 321 319 309 306 310 306 290 285 294 305 202 180 192 135 205 236 226 288 303 303 295 190 173
78 52 357 334 320 339 337 337 337 320 326 324 324 324 325 323 321 319 320 320 317 311 312 305 300 296 302 290 287 281 264 187 184 150 148 184 235 293 307 317 294 217 175